Location: Atherton
(17.2661°S, 145.4859°E)
Time: 11:58:49
(UTC+10:00)

Vanguard 1 - Pass Details

Date: 26 June 2025
Orbit: 649 x 3822 km, 34.2° (Epoch: 05 July)

Event Time Altitude Azimuth Distance (km) Brightness Sun altitude
Rises 21:23:29 0° 260° (W) 6,550 14.9 -48.1°
Reaches altitude 10° 21:29:28 10° 249° (WSW) 4,937 14.0 -49.5°
Enters shadow 21:36:22 24° 222° (SW) 3,186 12.7 -51.0°
Maximum altitude 21:39:39 27° 196° (SSW) 2,643 - -51.8°
Drops below altitude 10° 21:46:01 10° 138° (SE) 3,012 - -53.3°
Sets 21:48:41 0° 125° (SE) 3,672 - -53.9°
